Location: Cumbre Roja
(10.2766°N, 67.0675°W)
Time: 01:46:11
(UTC+00:00)

Cosmos 1315 Rocket - Pass Details

Date: 18 November 2025
Orbit: 497 x 513 km, 81.2° (Epoch: 08 December)

Event Time Altitude Azimuth Distance (km) Brightness Sun altitude
Rises 23:01:34 0° 167° (SSE) 2,584 6.3 -14.6°
Reaches altitude 10° 23:03:51 10° 156° (SSE) 1,703 5.3 -15.1°
Maximum altitude 23:07:09 30° 94° (E) 922 3.4 -15.9°
Enters shadow 23:07:10 30° 94° (E) 922 3.4 -15.9°
